STARLINK-36180, 67114

Orbit data source: Space-Track

STARLINK-36180, 67114 is a payload satellite owned by SpaceX/Seattle (US) in LEO that was launched on Mon, 15 Dec 2025 UTC via an FALCON 9 launch vehicle from the Air Force Eastern Test Range (AFETR). Payload-class satellites include a variety of spacecraft equipped with specific instruments for various scientific and technological missions. These include communications satellites like Starlink; space stations such as the ISS; scientific satellites like the Hubble; Earth observation satellites from companies like Planet Labs, Umbra, and HawkEye 360; GPS; miniature CubeSats for education and research; and military/defense satellites.

Loading next visibility...
Identifier
67114, 2025-299N
Orbit
LEO
Country
Flag of USUS
Related business
Manufacturer
SpaceX/Seattle
Mission
Operational Commercial Communications
Bus & Motor
STARLINK V2MO, Unknown motor
Mass
575 kg wet, ~530 kg dry
Launch date (UTC)
2025-12-15 (6 months ago)
Launch vehicle
FALCON 9
Launch site
Air Force Eastern Test Range (AFETR)
Object type
Payload
Rocket body
Debris
Shape & HBR
Box + 2 Pan, 17.7 m
Radar Cross Section
36.964 m², Large (>1 m²)

Expand to show TLE details & history
Last TLE update: 11 hours ago

TLE from 11 hours ago
0 STARLINK-36180
1 67114U 25299N   26171.40683549  .00011621  00000-0  43099-3 0  9991
2 67114  42.9958 309.0517 0000770 193.8714 166.2117 15.27592539 28822
Epoch: 2026-06-20T09:45Z
TLE epoch observation values (Epoch: 2026-06-20T09:45:50.586Z)
Latitude
0.00002°
Longitude
-106.03096°
Altitude
483.3 km
Speed
7.625 km/s
True Right ascension
20h 36m 12s
True Declination
0° 00' 00"
Sunlit
Object was in full shadow at epoch
Visualization orbit readout
Latitude
Unknown
Longitude
Unknown
Altitude
Unknown
Speed
Unknown
Apparent Right ascension
Unknown
Apparent Declination
Unknown
Sunlit
N/A
Visualization observer readout
Local Sidereal Time
07:22:42
Azimuth
Unknown
Elevation
Unknown
Doppler factor
Unknown
Orbital elements
Apogee altitude
485.486 km
Perigee altitude
484.429 km
Semi-major axis
6,863.094 km
Eccentricity
0.00008
Inclination
42.9958°
RAAN
309.0517°
Arg. of periapsis
193.8714°
True anomaly
166.2138°
Mean anomaly
166.2117°
Eccentric anomaly
166.21275°
Mean motion
3.81736 °/min
Orbital period
94.31 mins
BSTAR
0.00043099
Loading maneuver chart data...
Computing Atmospheric mass density...
Loading historical data...
Loading historical data...
Loading historical data...
Loading historical data...
Loading historical data...
Loading historical data...
Loading historical data...

Documentation

Showing up to 5 results
|